#timestamp,LO_Frequency,Hit,StdDev 
1659992415.8,286047000.1,N
1659992435.7,286047002.4,Y
1659992455.5,286047002.5,P
1659992475.3,286047002.4,N
1659992495.2,286047002.7,N
1659992515.0,286047002.6,N
1659992515.9,286047002.6,N
1659992535.8,286047002.2,N
1659992555.6,286047002.6,N
1659992575.4,286047002.5,N
1659992595.3,286047002.0,N
1659992615.1,286046999.9,N
1659992635.8,286046999.9,N
1659992655.7,286047000.5,N
1659992675.5,286047000.3,N
1659992695.4,286047000.5,N
1659992715.2,286047000.3,N
1659992735.0,286047002.4,N
1659992735.9,286047002.4,N
1659992755.8,286047002.1,N
1659992775.6,286047002.4,N
1659992795.4,286047002.4,N
1659992815.3,286047002.1,N
1659992835.1,286046999.8,N
1659992855.9,286046999.8,N
1659992875.7,286047000.4,N
1659992895.5,286046998.1,N
1659992915.4,286046998.1,N
1659992935.2,286047000.9,N
1659992955.1,286047000.9,N
1659992956.0,286047000.9,N
1659992975.8,286047001.0,N
1659992995.6,286047000.0,N
1659993015.5,286046998.2,N
1659993035.3,286047001.1,N
1659993055.1,286047000.9,N
1659993075.9,286047000.5,N
1659993095.7,286047000.6,N
1659993115.6,286047000.7,N
1659993135.4,286047000.9,N
1659993155.2,286047000.3,N
1659993175.1,286046999.7,N
1659993176.0,286046999.7,N
1659993195.8,286046999.9,N
1659993215.7,286047000.1,N
1659993235.5,286047002.2,N
1659993255.3,286047002.2,N
1659993275.2,286047002.6,N
1659993295.0,286047000.6,N
1659993295.9,286047000.6,N
1659993315.8,286047000.9,N
1659993335.6,286046999.7,N
1659993355.4,286047002.8,N
1659993375.3,286047000.1,N
1659993395.1,286046999.9,N
1659993415.8,286047000.9,N
1659993435.7,286047000.5,N
1659993455.5,286047000.1,N
1659993475.4,286047001.0,N
1659993495.2,286047000.9,N
1659993515.0,286046998.1,N
1659993515.9,286046998.1,N
1659993535.8,286047001.0,N
1659993555.6,286047001.2,N
1659993575.4,286047000.8,N
1659993595.3,286047002.4,N
1659993615.1,286047000.0,N
1659993635.9,286047001.0,N
1659993655.7,286047000.5,N
1659993675.5,286047000.8,N
1659993695.4,286047000.0,N
1659993715.2,286047001.1,N
1659993735.0,286047001.1,N
1659993735.9,286047001.1,N
1659993755.8,286047001.0,N
1659993775.6,286047000.0,N
1659993795.5,286047001.0,N
1659993815.3,286047001.0,N
1659993835.1,286047000.9,N
1659993855.9,286047000.2,N
1659993875.7,286047002.7,N
1659993895.5,286047000.3,N
1659993915.4,286046999.8,N
1659993935.2,286047000.6,N
1659993955.1,286047002.6,N
1659993956.0,286047002.6,N
1659993975.8,286047002.7,N
1659993995.6,286047002.4,N
1659994015.5,286047002.1,N
1659994035.3,286047002.6,N
1659994055.2,286047002.6,N
1659994075.9,286047002.7,N
1659994095.2,286047002.4,N
1659994115.1,286047002.2,N
1659994116.0,286047002.2,N
1659994135.8,286046999.9,N
1659994155.6,286047002.8,N
1659994175.5,286046999.8,N
1659994195.3,286047002.5,N
1659994215.1,286047002.5,N
1659994235.9,286046999.8,N
1659994255.7,286046999.8,N
1659994275.6,286046999.8,N
1659994295.4,286047002.8,N
1659994345.3,286047002.2,E
1659994355.2,286047000.0,N
1659994375.0,286047001.2,P
1659994375.9,286047001.2,N
1659994395.8,286047001.0,N
1659994415.6,286046998.9,N
1659994435.4,286046999.4,N
1659994455.3,286046998.3,N
1659994475.1,286047001.1,N
1659994495.8,286046999.1,N
1659994515.7,286046998.8,N
1659994535.5,286046998.3,N
1659994555.4,286046998.2,N
1659994575.2,286047001.1,N
1659994595.0,286046998.7,N
1659994595.9,286046998.7,N
1659994615.8,286046999.3,N
1659994635.6,286046999.5,N
1659994655.4,286046997.4,N
1659994675.3,286046995.3,Y
1659994695.1,286046996.9,P
1659994715.9,286046996.6,N
1659994735.7,286046999.0,N
1659994755.5,286046998.9,N
1659994775.4,286046999.1,N
1659994795.2,286046999.0,N
1659994815.1,286046999.5,N
1659994816.0,286046999.5,N
1659994835.8,286046998.5,N
1659994855.6,286047000.7,N
1659994875.5,286046998.8,N
1659994895.3,286046999.1,N
1659994915.2,286046999.6,N
1659994935.9,286046999.4,N
1659994955.7,286046998.0,N
1659994975.6,286046995.1,Y
1659994995.4,286046997.4,P
1659995015.3,286046997.4,P
1659995035.1,286046997.7,P
1659995036.0,286046997.7,Y
1659995055.8,286046998.6,P
1659995075.7,286046998.3,P
1659995095.5,286046998.5,P
1659995115.4,286046999.0,Y
1659995135.2,286047002.3,P
1659995155.0,286047002.6,N
1659995155.9,286047002.6,N
1659995175.8,286047000.2,N
1659995195.6,286047000.2,N
1659995215.5,286047000.1,N
1659995235.3,286047000.9,N
1659995255.1,286047000.8,N
1659995275.9,286047000.3,N
1659995295.7,286047000.0,N
1659995315.5,286047000.8,N
1659995335.4,286047000.7,N
1659995355.2,286047001.2,N
1659995375.1,286047000.4,N
1659995376.0,286047000.4,N
1659995395.8,286046998.5,N
1659995415.6,286047000.0,N
1659995435.5,286047001.0,N
1659995455.3,286047000.7,N
1659995475.2,286046999.7,N
1659995495.9,286047002.0,N
1659995515.7,286047002.5,N
1659995535.6,286047002.5,N
1659995555.4,286047002.4,N
1659995575.2,286047000.2,N
1659995595.1,286047000.2,N
1659995596.0,286047000.2,N
1659995615.8,286047000.5,N
1659995635.7,286046999.8,N
1659995655.5,286046999.9,N
1659995675.3,286047000.0,N
1659995695.2,286046999.7,N
1659995715.0,286047000.0,N
1659995715.9,286047000.0,N
1659995735.7,286047001.6,N
1659995755.6,286047001.5,N
1659995775.4,286047002.5,N
1659995795.3,286047001.5,N
1659995815.1,286047001.7,N
1659995816.0,286047001.7,N
1659995835.8,286047002.8,N
1659995855.7,286047000.2,N
1659995875.5,286047001.3,N
1659995895.3,286047001.6,N
1659995915.2,286047001.3,N
1659995935.0,286047002.4,N
1659995935.9,286047002.4,N
1659995955.8,286047002.7,N
1659995975.6,286047001.9,N
1659995995.4,286047002.8,N
